Regional Weather Roundup
Issued by NWS

Home | Current Version | Previous Version | Graphics & Text | Print | Product List | Glossary On
Versions: 1 2 3 4 5 6 7 8 9 10 11 12 13 14 15 16 17 18 19 20 21 22 23 24 25 26 27 28 29 30 31 32 33 34 35 36 37 38 39 40 41 42 43 44 45 46 47 48 49 50
000
ASUS43 KLMK 300810
RWRKY
KENTUCKY REGIONAL WEATHER ROUNDUP
NATIONAL WEATHER SERVICE LOUISVILLE KY
400 AM EDT TUE AUG 30 2016

NOTE "FAIR" INDICATES FEW OR NO CLOUDS BELOW 12,000 FEET
WITH NO SIGNIFICANT WEATHER AND/OR OBSTRUCTIONS TO VISIBILITY.

KYZ001>023-026-027-061>063-070>075-300900-
WESTERN AND SOUTH CENTRAL KENTUCKY

CITY           SKY/WX    TMP DP  RH WIND       PRES   REMARKS
PADUCAH        CLEAR     75  71  87 CALM      30.09S
HENDERSON      CLEAR     72  66  83 CALM      30.10S
OWENSBORO      CLEAR     76  74  93 CALM      30.11F
HOPKINSVILLE   CLEAR     74  71  90 NE3       30.09S
BOWLING GREEN  CLEAR     73  70  90 CALM      30.11S
GLASGOW        CLEAR     72  72 100 NE5       30.12S
$$

KYZ024-025-028>034-038-045-046-053-300900-
NORTH CENTRAL KENTUCKY

CITY           SKY/WX    TMP DP  RH WIND       PRES   REMARKS
LOUISVILLE/SDF CLEAR     77  71  82 N3        30.12F
LOUISVILLE/LOU CLEAR     76  70  82 CALM      30.13F
FORT KNOX      CLEAR     72  69  92 NE2       30.12S
$$

KYZ035>037-039>044-047>052-055>060-089>105-300900-
NORTHEAST KENTUCKY

CITY           SKY/WX    TMP DP  RH WIND       PRES   REMARKS
LEXINGTON      CLEAR     72  68  87 NE3       30.15S
COVINGTON      CLEAR     75  70  84 NE6       30.17R
FRANKFORT      CLEAR     71  68  90 CALM      30.14R
$$

KYZ054-064>069-076>088-106>120-300900-
SOUTHEAST KENTUCKY

CITY           SKY/WX    TMP DP  RH WIND       PRES   REMARKS
JACKSON        CLEAR     71  68  90 CALM      30.16S
LONDON         CLEAR     70  66  87 CALM      30.14S
SOMERSET       CLEAR     70  68  94 CALM      30.14S
MIDDLESBORO    FOG       69  69 100 CALM      30.15F VSB 1
MONTICELLO     SUNNY    N/A N/A N/A VRB3      30.15S
$$





USA.gov is the U.S. government's official web portal to all federal, state and local government web resources and services.